Location: Hughes
(34.9493°N, 90.4715°W)
Time: 08:00:08
(UTC+00:00)

Daily predictions for brighter satellites

Satellite Brightness Start Highest point End
(mag) Time Altitude Azimuth Time Altitude Azimuth Time Altitude Azimuth
CZ-3C R/B 3.9 12:00:00 10° SW 12:05:15 35° SSE 12:34:00 10° ESE
Helios 1A Rocket 2.6 12:02:29 10° S 12:05:40 47° W 12:08:55 10° NNW
USA 290 3.8 12:03:02 10° S 12:06:01 38° ESE 12:09:03 10° NE
Cosmos 2322 Rocket 2.7 12:03:51 10° NW 12:09:03 39° WSW 12:14:14 10° S
Cosmos 1484 Rocket 2.7 12:06:46 10° N 12:09:57 42° WNW 12:13:07 10° SSW
Cosmos 1602 Rocket 4.0 12:16:41 10° SSW 12:20:50 39° W 12:25:00 10° N
BREEZE M DEB (TANK) 3.7 12:19:33 10° NW 12:20:54 13° N 12:22:42 10° NNE
Cosmos 1812 Rocket 3.5 12:17:40 10° NNW 12:21:58 67° W 12:26:17 10° S
Meteor 1-25 Rocket 4.3 12:16:55 10° S 12:22:40 89° W 12:28:30 10° N
Cosmos 2221 2.5 12:20:40 10° NNW 12:24:43 57° W 12:28:45 10° S
Cosmos 1437 Rocket 2.4 12:24:39 10° NNW 12:28:06 65° W 12:31:33 10° S
IRIS 3.8 12:29:05 10° WSW 12:32:02 85° NNW 12:34:58 10° ENE
Okean 1-7 Rocket 3.9 12:28:13 10° SSW 12:32:31 44° W 12:36:48 10° N
ATLAS 2AS CENTAUR R/B 3.5 12:28:35 10° WSW 12:34:33 29° NW 12:40:25 10° N
Cosmos 1842 2.9 12:31:20 10° N 12:34:39 82° E 12:37:55 10° S
OAO 2 Rocket 3.5 12:32:05 10° W 12:37:18 84° S 12:42:26 10° ESE
Cosmos 1898 Rocket 3.9 23:08:00 10° S 23:12:49 43° ESE 23:17:41 10° NNE
Sakura Rocket 4.4 23:15:44 10° WSW 23:20:58 39° S 23:25:00 10° ESE
Cosmos 2333 Rocket 4.0 23:20:55 10° ESE 23:22:15 11° E 23:23:36 10° E
IGS 5A 3.7 23:19:23 10° S 23:23:18 71° W 23:27:16 10° NNW
Okean 1 4.2 23:21:52 10° SE 23:24:49 24° E 23:27:46 10° NE
SL-16 R/B 3.7 23:19:57 10° N 23:25:46 44° WNW 23:31:32 10° SW
Cosmos 1937 Rocket 3.9 23:21:29 10° S 23:26:18 41° ESE 23:31:07 10° NNE
Cosmos 2058 Rocket 3.5 23:23:55 10° SSE 23:28:07 42° E 23:32:20 10° NNE
Cosmos 1606 Rocket 4.5 23:27:06 10° SSW 23:31:23 52° W 23:35:43 10° N
USA 238 DEB 4.1 23:26:53 10° SW 23:32:43 55° NW 23:39:05 10° NNE
USA 238 4.1 23:26:59 10° SW 23:32:51 56° NW 23:39:14 10° NNE
Cosmos-2242 3.2 23:31:36 10° SSE 23:35:38 46° E 23:39:43 10° NNE
CZ-2D R/B 2.9 23:32:44 10° SSE 23:35:43 46° ENE 23:38:45 10° N
SL-24 R/B - RUBIN 2 4.1 23:38:43 10° SSW 23:44:22 69° ESE 23:49:23 10° NE
SAR-Lupe-4 3.4 23:43:21 10° SSE 23:46:53 73° ENE 23:50:25 10° N
Aureole 1 Rocket 4.1 23:45:55 10° SW 23:50:05 52° WNW 23:55:23 10° N
CZ-2D R/B 4.3 23:50:08 10° SE 23:53:42 28° ENE 23:57:14 10° NNE
ARIANE 5 R/B 2.5 23:48:53 10° SSE 23:53:56 88° W 23:59:04 10° NNW
Atlas Centaur 2 3.4 23:53:47 10° S 23:55:17 12° SSE 23:56:47 10° SE
